User: anonymous   Login
Location: Columbia
(38.9520°N, 92.3340°W)
Time: 12:54:51
(UTC-06:00)
Language:

Cosmos 2219 Rocket - Orbit

View from above orbital plane
View from above orbital plane
View from above satellite
View from above satellite

Ground track
Ground track

The orbit data is extracted from the following two-line orbital elements,

1 22220U 92076B   16038.90168584 +.00000031 +00000-0 +39686-4 0  9991
2 22220 071.0007 021.7728 0014886 301.8629 080.9965 14.16391438200311
Epoch (UTC): 07 February 2016 21:38:25
Eccentricity: 0.0014886
inclination: 71.0007°
perigee height: 827 km
apogee height: 848 km
right ascension of ascending node: 21.7728°
argument of perigee: 301.8629°
revolutions per day: 14.16391438
mean anomaly at epoch: 80.9965°
orbit number at epoch: 20031

The dashed part of the orbit path shows where the satellite is in the earth's shadow,  

DLR